PIMOHWEATHER Station Historical Data
Daily Summary for August 02, 2020 Units:  Metric    English   Both
Daily Weekly Monthly Yearly
  High: Low: Average:
Temperature: 31.0 °C 25.0 °C 27.9 °C
Dew Point: 25.0 °C 23.0 °C 24.2 °C
Humidity: 93% 66% 81%
Wind Speed: 25km/h 0km/h 6km/h
Wind Gust: 32km/h - -
Wind- - South
Pressure: 1014.7 hPa 1011.2 hPa -
Precipitation: 2.11 mm    
 
 
Tabular Data for August 02, 2020
Time Temperature Dew Point Pressure Wind Wind Speed Wind Gust Humidity Rainfall Rate (Hourly) solar
00:04 26.0 °C 24.0 °C 1014.2 hPa Calm     89% 0.00 mm 0.00 W/m2
00:14 26.0 °C 24.0 °C 1014.2 hPa Calm     88% 0.00 mm 0.00 W/m2
00:19 26.0 °C 24.0 °C 1014.1 hPa Calm     88% 0.00 mm 0.00 W/m2
00:24 26.0 °C 24.0 °C 1013.9 hPa Calm   4 km/h 88% 0.00 mm 0.00 W/m2
00:29 26.0 °C 24.0 °C 1014.1 hPa Calm     88% 0.00 mm 0.00 W/m2
00:32 26.0 °C 24.0 °C 1013.8 hPa Calm   4 km/h 88% 0.00 mm 0.00 W/m2
00:44 26.0 °C 24.0 °C 1013.6 hPa Calm     87% 0.00 mm 0.00 W/m2
00:49 26.0 °C 24.0 °C 1013.6 hPa Calm     88% 0.00 mm 0.00 W/m2
00:54 26.0 °C 24.0 °C 1013.7 hPa Calm     88% 0.00 mm 0.00 W/m2
00:59 26.0 °C 24.0 °C 1013.7 hPa Calm     88% 0.00 mm 0.00 W/m2
01:04 26.0 °C 24.0 °C 1013.6 hPa Calm     88% 0.00 mm 0.00 W/m2
01:09 26.0 °C 24.0 °C 1013.5 hPa Calm     88% 0.00 mm 0.00 W/m2
01:14 26.0 °C 24.0 °C 1013.4 hPa Calm     88% 0.00 mm 0.00 W/m2
01:19 26.0 °C 24.0 °C 1013.4 hPa Calm     88% 0.00 mm 0.00 W/m2
01:24 26.0 °C 24.0 °C 1013.4 hPa NE 1 km/h 4 km/h 88% 0.00 mm 0.00 W/m2
01:29 26.0 °C 24.0 °C 1013.3 hPa Calm   4 km/h 88% 0.00 mm 0.00 W/m2
01:34 26.0 °C 24.0 °C 1013.3 hPa Calm   4 km/h 88% 0.00 mm 0.00 W/m2
01:39 26.0 °C 24.0 °C 1013.3 hPa Calm     88% 0.00 mm 0.00 W/m2
01:44 26.0 °C 24.0 °C 1013.3 hPa NE 1 km/h 4 km/h 88% 0.00 mm 0.00 W/m2
01:49 26.0 °C 24.0 °C 1013.4 hPa Calm     88% 0.00 mm 0.00 W/m2
01:54 26.0 °C 24.0 °C 1013.2 hPa Calm     88% 0.00 mm 0.00 W/m2
01:59 26.0 °C 24.0 °C 1013.1 hPa Calm   4 km/h 88% 0.00 mm 0.00 W/m2
02:04 26.0 °C 24.0 °C 1013.3 hPa Calm     88% 0.00 mm 0.00 W/m2
02:09 26.0 °C 24.0 °C 1013.1 hPa Calm     88% 0.00 mm 0.00 W/m2
02:14 26.0 °C 24.0 °C 1013.4 hPa Calm     88% 0.00 mm 0.00 W/m2
02:16 26.0 °C 24.0 °C 1013.0 hPa Calm     88% 0.00 mm 0.00 W/m2
02:24 26.0 °C 24.0 °C 1012.8 hPa Calm     87% 0.00 mm 0.00 W/m2
02:29 26.0 °C 24.0 °C 1013.2 hPa Calm     88% 0.00 mm 0.00 W/m2
02:34 26.0 °C 24.0 °C 1013.2 hPa Calm     88% 0.00 mm 0.00 W/m2
02:39 26.0 °C 24.0 °C 1013.3 hPa Calm     88% 0.00 mm 0.00 W/m2
02:44 26.0 °C 24.0 °C 1013.1 hPa NE 1 km/h 4 km/h 88% 0.00 mm 0.00 W/m2
02:49 26.0 °C 24.0 °C 1013.1 hPa Calm   4 km/h 88% 0.00 mm 0.00 W/m2
02:54 26.0 °C 24.0 °C 1013.3 hPa Calm   4 km/h 88% 0.00 mm 0.00 W/m2
02:59 26.0 °C 24.0 °C 1013.1 hPa Calm     88% 0.00 mm 0.00 W/m2
03:04 26.0 °C 24.0 °C 1013.2 hPa Calm     88% 0.00 mm 0.00 W/m2
03:09 26.0 °C 24.0 °C 1013.2 hPa Calm     88% 0.00 mm 0.00 W/m2
03:14 26.0 °C 24.0 °C 1013.2 hPa Calm     88% 0.00 mm 0.00 W/m2
03:19 26.0 °C 24.0 °C 1013.2 hPa Calm     88% 0.00 mm 0.00 W/m2
03:24 26.0 °C 24.0 °C 1013.2 hPa Calm     88% 0.00 mm 0.00 W/m2
03:29 26.0 °C 24.0 °C 1013.2 hPa Calm   4 km/h 88% 0.00 mm 0.00 W/m2
03:34 26.0 °C 24.0 °C 1013.0 hPa ENE 1 km/h 4 km/h 88% 0.00 mm 0.00 W/m2
03:39 26.0 °C 24.0 °C 1013.0 hPa Calm   4 km/h 88% 0.00 mm 0.00 W/m2
03:44 26.0 °C 24.0 °C 1013.1 hPa Calm     88% 0.00 mm 0.00 W/m2
03:49 26.0 °C 24.0 °C 1013.0 hPa Calm     89% 0.00 mm 0.00 W/m2
03:54 26.0 °C 24.0 °C 1013.1 hPa Calm     89% 0.00 mm 0.00 W/m2
03:59 26.0 °C 24.0 °C 1013.1 hPa East 3 km/h 4 km/h 89% 0.00 mm 0.00 W/m2
04:00 26.0 °C 24.0 °C 1012.7 hPa Calm     89% 0.00 mm 0.00 W/m2
04:09 26.0 °C 24.0 °C 1012.8 hPa Calm     89% 0.00 mm 0.00 W/m2
04:14 26.0 °C 24.0 °C 1013.1 hPa Calm     89% 0.00 mm 0.00 W/m2
04:19 26.0 °C 24.0 °C 1013.0 hPa Calm     89% 0.00 mm 0.00 W/m2
04:24 26.0 °C 24.0 °C 1013.2 hPa Calm     89% 0.00 mm 0.00 W/m2
04:29 26.0 °C 24.0 °C 1013.1 hPa Calm     89% 0.00 mm 0.00 W/m2
04:34 26.0 °C 24.0 °C 1013.1 hPa Calm     88% 0.00 mm 0.00 W/m2
04:39 26.0 °C 24.0 °C 1013.4 hPa Calm     89% 0.00 mm 0.00 W/m2
04:44 26.0 °C 24.0 °C 1013.3 hPa Calm     89% 0.00 mm 0.00 W/m2
04:49 26.0 °C 24.0 °C 1013.3 hPa Calm     89% 0.00 mm 0.00 W/m2
04:54 26.0 °C 24.0 °C 1013.3 hPa Calm     89% 0.00 mm 0.00 W/m2
04:59 26.0 °C 24.0 °C 1013.2 hPa Calm     89% 0.00 mm 0.00 W/m2
05:04 26.0 °C 24.0 °C 1013.0 hPa Calm     89% 0.00 mm 0.00 W/m2
05:09 26.0 °C 24.0 °C 1013.3 hPa Calm     89% 0.00 mm 0.00 W/m2
05:14 26.0 °C 24.0 °C 1013.0 hPa East 1 km/h 4 km/h 89% 0.00 mm 0.00 W/m2
05:19 26.0 °C 23.0 °C 1013.2 hPa Calm   4 km/h 88% 0.00 mm 0.00 W/m2
05:24 26.0 °C 23.0 °C 1013.1 hPa East 1 km/h 4 km/h 88% 0.00 mm 0.00 W/m2
05:29 26.0 °C 23.0 °C 1012.8 hPa Calm     88% 0.00 mm 0.00 W/m2
05:34 26.0 °C 23.0 °C 1013.2 hPa Calm     88% 0.00 mm 0.00 W/m2
05:39 26.0 °C 23.0 °C 1013.1 hPa Calm   4 km/h 88% 0.00 mm 0.00 W/m2
05:43 26.0 °C 23.0 °C 1013.2 hPa Calm     88% 0.00 mm 1.22 W/m2
05:54 26.0 °C 24.0 °C 1013.0 hPa East 2 km/h 4 km/h 89% 0.00 mm 8.56 W/m2
05:59 26.0 °C 24.0 °C 1013.0 hPa East 3 km/h 4 km/h 89% 0.00 mm 12.97 W/m2
06:04 26.0 °C 24.0 °C 1013.1 hPa Calm     89% 0.00 mm 20.31 W/m2
06:09 26.0 °C 24.0 °C 1013.1 hPa Calm     89% 0.00 mm 27.28 W/m2
06:14 26.0 °C 24.0 °C 1013.1 hPa Calm     89% 0.00 mm 31.56 W/m2
06:19 26.0 °C 24.0 °C 1013.1 hPa Calm     89% 0.00 mm 33.76 W/m2
06:24 26.0 °C 24.0 °C 1013.2 hPa Calm     89% 0.00 mm 35.48 W/m2
06:29 26.0 °C 24.0 °C 1013.2 hPa Calm     89% 0.00 mm 39.02 W/m2
06:34 26.0 °C 24.0 °C 1013.2 hPa Calm     89% 0.00 mm 44.16 W/m2
06:39 26.0 °C 24.0 °C 1013.3 hPa East 1 km/h 4 km/h 89% 0.00 mm 53.34 W/m2
06:44 26.0 °C 24.0 °C 1013.5 hPa East 3 km/h 4 km/h 88% 0.00 mm 61.53 W/m2
06:49 26.0 °C 24.0 °C 1013.3 hPa Calm     88% 0.00 mm 69.73 W/m2
06:54 26.0 °C 24.0 °C 1013.3 hPa Calm     88% 0.00 mm 78.05 W/m2
06:59 26.0 °C 24.0 °C 1013.4 hPa East 1 km/h 4 km/h 87% 0.00 mm 75.85 W/m2
07:04 26.0 °C 24.0 °C 1013.5 hPa East 3 km/h 4 km/h 86% 0.00 mm 63.24 W/m2
07:09 26.0 °C 24.0 °C 1013.5 hPa Calm     86% 0.00 mm 44.16 W/m2
07:14 26.0 °C 24.0 °C 1013.6 hPa East 5 km/h 8 km/h 85% 0.00 mm 36.82 W/m2
07:19 26.0 °C 24.0 °C 1013.8 hPa East 4 km/h 4 km/h 85% 0.00 mm 35.11 W/m2
07:24 26.0 °C 24.0 °C 1013.8 hPa East 4 km/h 4 km/h 86% 0.00 mm 59.33 W/m2
07:29 26.0 °C 24.0 °C 1013.7 hPa East 4 km/h 8 km/h 86% 0.00 mm 61.17 W/m2
07:34 26.0 °C 24.0 °C 1013.7 hPa SW 15 km/h 24 km/h 90% 5.41 mm 53.34 W/m2
07:39 26.0 °C 24.0 °C 1013.7 hPa SW 8 km/h 12 km/h 91% 8.99 mm 73.65 W/m2
07:44 26.0 °C 24.0 °C 1013.8 hPa SW 10 km/h 16 km/h 92% 8.99 mm 78.05 W/m2
07:49 26.0 °C 24.0 °C 1013.8 hPa SW 11 km/h 12 km/h 92% 5.41 mm 75.48 W/m2
07:54 26.0 °C 24.0 °C 1013.9 hPa SW 14 km/h 16 km/h 93% 1.80 mm 67.16 W/m2
07:59 26.0 °C 24.0 °C 1014.0 hPa SW 14 km/h 20 km/h 93% 0.00 mm 85.88 W/m2
08:04 25.0 °C 24.0 °C 1014.2 hPa SW 8 km/h 12 km/h 92% 1.80 mm 91.87 W/m2
08:09 25.0 °C 24.0 °C 1014.2 hPa SW 4 km/h 4 km/h 92% 1.80 mm 70.22 W/m2
08:14 26.0 °C 24.0 °C 1014.2 hPa WSW 4 km/h 4 km/h 91% 1.80 mm 75.85 W/m2
08:19 26.0 °C 24.0 °C 1014.2 hPa WNW 5 km/h 8 km/h 91% 0.00 mm 161.36 W/m2
08:24 26.0 °C 24.0 °C 1014.3 hPa NW 5 km/h 8 km/h 91% 0.00 mm 175.19 W/m2
08:29 26.0 °C 24.0 °C 1014.3 hPa Calm     91% 0.00 mm 186.44 W/m2
08:34 26.0 °C 24.0 °C 1014.3 hPa NW 1 km/h 4 km/h 90% 0.00 mm 200.75 W/m2
08:39 26.0 °C 25.0 °C 1014.4 hPa NW 4 km/h 4 km/h 90% 0.00 mm 214.70 W/m2
08:44 26.0 °C 24.0 °C 1014.3 hPa NW 5 km/h 8 km/h 89% 0.00 mm 238.56 W/m2
08:49 27.0 °C 24.0 °C 1014.5 hPa NW 5 km/h 8 km/h 88% 0.00 mm 256.78 W/m2
08:54 27.0 °C 25.0 °C 1014.7 hPa NW 4 km/h 4 km/h 87% 0.00 mm 266.69 W/m2
08:59 27.0 °C 25.0 °C 1014.6 hPa North 7 km/h 8 km/h 85% 0.00 mm 267.55 W/m2
09:04 27.0 °C 25.0 °C 1014.7 hPa NNW 12 km/h 16 km/h 84% 0.00 mm 268.90 W/m2
09:09 28.0 °C 24.0 °C 1014.7 hPa NNW 9 km/h 12 km/h 83% 0.00 mm 274.15 W/m2
09:14 27.0 °C 24.0 °C 1014.6 hPa NNE 10 km/h 12 km/h 83% 0.00 mm 284.55 W/m2
09:19 27.0 °C 24.0 °C 1014.7 hPa North 10 km/h 12 km/h 82% 0.00 mm 283.20 W/m2
09:24 28.0 °C 24.0 °C 1014.7 hPa North 6 km/h 8 km/h 81% 0.00 mm 281.86 W/m2
09:29 28.0 °C 24.0 °C 1014.7 hPa North 8 km/h 8 km/h 80% 0.00 mm 280.64 W/m2
09:34 28.0 °C 24.0 °C 1014.6 hPa NNE 12 km/h 12 km/h 80% 0.00 mm 273.30 W/m2
09:39 28.0 °C 24.0 °C 1014.6 hPa NNE 5 km/h 8 km/h 80% 0.00 mm 266.32 W/m2
09:44 28.0 °C 24.0 °C 1014.7 hPa NNE 1 km/h 4 km/h 78% 0.00 mm 275.01 W/m2
09:49 28.0 °C 24.0 °C 1014.5 hPa NNW 14 km/h 16 km/h 77% 0.00 mm 287.61 W/m2
09:54 28.0 °C 24.0 °C 1014.5 hPa NNW 10 km/h 12 km/h 78% 0.00 mm 295.32 W/m2
09:59 28.0 °C 24.0 °C 1014.5 hPa NNE 8 km/h 12 km/h 78% 0.00 mm 317.95 W/m2
10:04 28.0 °C 24.0 °C 1014.6 hPa NE 4 km/h 4 km/h 78% 0.00 mm 318.81 W/m2
10:09 29.0 °C 24.0 °C 1014.4 hPa NNW 5 km/h 8 km/h 77% 0.00 mm 261.55 W/m2
10:14 28.0 °C 24.0 °C 1014.4 hPa NW 10 km/h 12 km/h 76% 0.00 mm 260.21 W/m2
10:19 29.0 °C 24.0 °C 1014.4 hPa SW 10 km/h 16 km/h 76% 0.00 mm 247.61 W/m2
10:24 29.0 °C 24.0 °C 1014.3 hPa WSW 19 km/h 28 km/h 75% 0.00 mm 322.23 W/m2
10:29 29.0 °C 24.0 °C 1014.2 hPa WSW 6 km/h 8 km/h 74% 0.00 mm 337.40 W/m2
10:34 29.0 °C 24.0 °C 1014.2 hPa South 15 km/h 20 km/h 74% 0.00 mm 366.52 W/m2
10:39 29.0 °C 24.0 °C 1014.1 hPa South 11 km/h 12 km/h 74% 0.00 mm 369.57 W/m2
10:44 29.0 °C 24.0 °C 1013.9 hPa South 8 km/h 8 km/h 72% 0.00 mm 369.08 W/m2
10:49 29.0 °C 24.0 °C 1013.9 hPa South 12 km/h 16 km/h 72% 0.00 mm 372.15 W/m2
10:54 29.0 °C 24.0 °C 1013.9 hPa SSE 12 km/h 16 km/h 73% 0.00 mm 391.72 W/m2
10:59 30.0 °C 24.0 °C 1013.6 hPa SE 11 km/h 16 km/h 72% 0.00 mm 398.20 W/m2
11:04 30.0 °C 24.0 °C 1013.6 hPa South 9 km/h 12 km/h 72% 0.00 mm 399.42 W/m2
11:09 30.0 °C 24.0 °C 1013.5 hPa SSE 22 km/h 24 km/h 73% 0.00 mm 399.91 W/m2
11:14 30.0 °C 24.0 °C 1013.3 hPa SE 14 km/h 20 km/h 74% 0.00 mm 342.66 W/m2
11:19 29.0 °C 24.0 °C 1013.2 hPa ESE 8 km/h 16 km/h 74% 0.00 mm 351.71 W/m2
11:24 30.0 °C 24.0 °C 1013.1 hPa ENE 8 km/h 12 km/h 73% 0.00 mm 373.49 W/m2
11:29 30.0 °C 24.0 °C 1013.2 hPa ESE 15 km/h 28 km/h 73% 0.00 mm 378.63 W/m2
11:34 30.0 °C 24.0 °C 1013.0 hPa SE 14 km/h 16 km/h 73% 0.00 mm 403.83 W/m2
11:39 30.0 °C 24.0 °C 1012.9 hPa SE 11 km/h 16 km/h 73% 0.00 mm 434.17 W/m2
11:44 30.0 °C 25.0 °C 1013.0 hPa SSE 17 km/h 24 km/h 74% 0.00 mm 504.51 W/m2
11:49 30.0 °C 25.0 °C 1013.0 hPa ENE 9 km/h 16 km/h 74% 0.00 mm 543.05 W/m2
11:54 30.0 °C 25.0 °C 1012.9 hPa NNE 13 km/h 16 km/h 74% 0.00 mm 516.13 W/m2
11:59 30.0 °C 25.0 °C 1012.7 hPa ENE 14 km/h 16 km/h 73% 0.00 mm 558.71 W/m2
12:04 30.0 °C 25.0 °C 1012.9 hPa NE 12 km/h 16 km/h 73% 0.00 mm 647.16 W/m2
12:09 30.0 °C 25.0 °C 1012.6 hPa NE 10 km/h 12 km/h 71% 0.00 mm 588.68 W/m2
12:14 31.0 °C 25.0 °C 1012.7 hPa ENE 14 km/h 16 km/h 71% 0.00 mm 497.05 W/m2
12:19 30.0 °C 25.0 °C 1012.7 hPa ESE 6 km/h 12 km/h 71% 0.00 mm 455.82 W/m2
12:24 30.0 °C 24.0 °C 1012.4 hPa SSW 11 km/h 12 km/h 71% 0.00 mm 489.34 W/m2
12:29 31.0 °C 24.0 °C 1012.4 hPa South 8 km/h 12 km/h 70% 0.00 mm 489.34 W/m2
12:34 31.0 °C 25.0 °C 1012.4 hPa ENE 10 km/h 16 km/h 69% 0.00 mm 489.71 W/m2
12:39 31.0 °C 24.0 °C 1012.3 hPa ENE 5 km/h 8 km/h 68% 0.00 mm 561.77 W/m2
12:44 31.0 °C 24.0 °C 1012.2 hPa NE 9 km/h 12 km/h 67% 0.00 mm 570.45 W/m2
12:49 31.0 °C 24.0 °C 1012.1 hPa NNE 15 km/h 20 km/h 68% 0.00 mm 621.59 W/m2
12:54 31.0 °C 24.0 °C 1012.2 hPa NNE 25 km/h 32 km/h 70% 0.00 mm 643.24 W/m2
12:59 30.0 °C 24.0 °C 1012.2 hPa NNE 21 km/h 24 km/h 70% 0.00 mm 629.42 W/m2
13:04 30.0 °C 24.0 °C 1012.0 hPa North 16 km/h 20 km/h 69% 0.00 mm 607.28 W/m2
13:09 31.0 °C 24.0 °C 1011.7 hPa North 15 km/h 16 km/h 68% 0.00 mm 520.91 W/m2
13:14 31.0 °C 24.0 °C 1011.7 hPa NNE 12 km/h 16 km/h 68% 0.00 mm 399.42 W/m2
13:19 31.0 °C 24.0 °C 1011.7 hPa ENE 7 km/h 8 km/h 68% 0.00 mm 389.52 W/m2
13:24 31.0 °C 24.0 °C 1011.6 hPa WNW 10 km/h 12 km/h 68% 0.00 mm 394.29 W/m2
13:29 31.0 °C 24.0 °C 1011.7 hPa West 10 km/h 20 km/h 67% 0.00 mm 413.37 W/m2
13:34 31.0 °C 24.0 °C 1011.6 hPa West 9 km/h 16 km/h 67% 0.00 mm 579.50 W/m2
13:39 31.0 °C 24.0 °C 1011.6 hPa SW 22 km/h 32 km/h 67% 0.00 mm 599.45 W/m2
13:44 31.0 °C 24.0 °C 1011.7 hPa SW 17 km/h 20 km/h 67% 0.00 mm 574.36 W/m2
13:49 30.0 °C 24.0 °C 1011.5 hPa WSW 12 km/h 16 km/h 67% 0.00 mm 429.03 W/m2
13:54 31.0 °C 24.0 °C 1011.4 hPa SW 13 km/h 20 km/h 67% 0.00 mm 415.57 W/m2
13:59 31.0 °C 23.0 °C 1011.5 hPa SW 18 km/h 20 km/h 67% 0.00 mm 395.15 W/m2
14:04 30.0 °C 23.0 °C 1011.5 hPa SW 17 km/h 20 km/h 67% 0.00 mm 368.23 W/m2
14:09 30.0 °C 23.0 °C 1011.4 hPa SW 17 km/h 24 km/h 67% 0.00 mm 348.29 W/m2
14:14 30.0 °C 23.0 °C 1011.4 hPa SW 18 km/h 20 km/h 68% 0.00 mm 337.03 W/m2
14:19 30.0 °C 23.0 °C 1011.3 hPa WSW 14 km/h 16 km/h 67% 0.00 mm 369.08 W/m2
14:24 30.0 °C 23.0 °C 1011.3 hPa SW 17 km/h 24 km/h 67% 0.00 mm 373.49 W/m2
14:29 30.0 °C 23.0 °C 1011.3 hPa WNW 12 km/h 24 km/h 67% 0.00 mm 388.17 W/m2
14:34 30.0 °C 23.0 °C 1011.4 hPa WNW 8 km/h 12 km/h 66% 0.00 mm 458.88 W/m2
14:39 30.0 °C 24.0 °C 1011.2 hPa SW 14 km/h 20 km/h 67% 0.00 mm 439.43 W/m2
14:44 30.0 °C 24.0 °C 1011.4 hPa SW 18 km/h 24 km/h 69% 0.00 mm 333.12 W/m2
14:49 30.0 °C 24.0 °C 1011.5 hPa SW 13 km/h 20 km/h 69% 0.00 mm 263.76 W/m2
14:54 30.0 °C 24.0 °C 1011.3 hPa SW 18 km/h 24 km/h 70% 0.00 mm 234.15 W/m2
14:59 30.0 °C 24.0 °C 1011.3 hPa WSW 10 km/h 12 km/h 71% 0.00 mm 211.15 W/m2
15:04 30.0 °C 24.0 °C 1011.3 hPa West 14 km/h 16 km/h 71% 0.00 mm 195.98 W/m2
15:09 29.0 °C 24.0 °C 1011.4 hPa WSW 17 km/h 24 km/h 72% 0.00 mm 182.15 W/m2
15:14 29.0 °C 24.0 °C 1011.4 hPa SW 11 km/h 20 km/h 73% 0.00 mm 172.12 W/m2
15:19 29.0 °C 24.0 °C 1011.3 hPa SW 13 km/h 20 km/h 72% 0.00 mm 168.21 W/m2
15:24 29.0 °C 24.0 °C 1011.4 hPa SSW 10 km/h 16 km/h 72% 0.00 mm 161.73 W/m2
15:29 29.0 °C 24.0 °C 1011.4 hPa SW 10 km/h 12 km/h 72% 0.00 mm 155.73 W/m2
15:34 29.0 °C 24.0 °C 1011.4 hPa WSW 12 km/h 16 km/h 73% 0.00 mm 147.05 W/m2
15:39 29.0 °C 24.0 °C 1011.4 hPa WSW 12 km/h 16 km/h 73% 0.00 mm 140.44 W/m2
15:44 29.0 °C 24.0 °C 1011.5 hPa WNW 6 km/h 8 km/h 74% 0.00 mm 142.27 W/m2
15:49 29.0 °C 24.0 °C 1011.5 hPa WSW 15 km/h 20 km/h 75% 0.00 mm 150.47 W/m2
15:54 29.0 °C 24.0 °C 1011.5 hPa SW 17 km/h 20 km/h 75% 0.00 mm 156.10 W/m2
15:59 29.0 °C 24.0 °C 1011.6 hPa WSW 10 km/h 12 km/h 75% 0.00 mm 157.81 W/m2
16:04 29.0 °C 24.0 °C 1011.7 hPa SW 11 km/h 16 km/h 75% 0.00 mm 156.59 W/m2
16:09 29.0 °C 24.0 °C 1011.7 hPa WSW 16 km/h 20 km/h 75% 0.00 mm 149.98 W/m2
16:14 29.0 °C 24.0 °C 1011.7 hPa WSW 6 km/h 12 km/h 75% 0.00 mm 140.93 W/m2
16:19 29.0 °C 24.0 °C 1011.6 hPa WSW 12 km/h 16 km/h 75% 0.00 mm 139.58 W/m2
16:24 29.0 °C 24.0 °C 1011.7 hPa WSW 12 km/h 16 km/h 75% 0.00 mm 136.65 W/m2
16:29 29.0 °C 24.0 °C 1011.8 hPa NW 21 km/h 24 km/h 74% 0.00 mm 133.95 W/m2
16:33 29.0 °C 24.0 °C 1011.7 hPa NW 4 km/h 4 km/h 74% 0.00 mm 131.88 W/m2
16:39 29.0 °C 24.0 °C 1011.9 hPa NW 5 km/h 8 km/h 73% 0.00 mm 126.61 W/m2
16:43 29.0 °C 24.0 °C 1011.7 hPa NW 3 km/h 4 km/h 73% 0.00 mm 116.58 W/m2
16:49 29.0 °C 24.0 °C 1011.7 hPa NW 1 km/h 4 km/h 73% 0.00 mm 107.53 W/m2
16:52 29.0 °C 24.0 °C 1011.7 hPa NW 2 km/h 4 km/h 73% 0.00 mm 101.41 W/m2
16:59 29.0 °C 24.0 °C 1011.6 hPa NNE 5 km/h 8 km/h 74% 0.00 mm 98.85 W/m2
17:04 29.0 °C 24.0 °C 1011.6 hPa NE 6 km/h 8 km/h 74% 0.00 mm 96.27 W/m2
17:09 29.0 °C 24.0 °C 1011.8 hPa NE 6 km/h 8 km/h 73% 0.00 mm 92.36 W/m2
17:14 29.0 °C 24.0 °C 1011.8 hPa NE 6 km/h 8 km/h 73% 0.00 mm 87.59 W/m2
17:19 29.0 °C 24.0 °C 1011.8 hPa NNE 10 km/h 12 km/h 73% 0.00 mm 80.62 W/m2
17:24 29.0 °C 24.0 °C 1011.8 hPa North 7 km/h 8 km/h 74% 0.00 mm 72.42 W/m2
17:29 29.0 °C 24.0 °C 1012.0 hPa NNE 13 km/h 16 km/h 74% 0.00 mm 62.39 W/m2
17:33 29.0 °C 24.0 °C 1011.9 hPa NNW 14 km/h 16 km/h 75% 0.00 mm 57.25 W/m2
17:38 29.0 °C 24.0 °C 1011.8 hPa NW 10 km/h 16 km/h 75% 0.00 mm 50.28 W/m2
17:44 29.0 °C 24.0 °C 1012.1 hPa NW 6 km/h 8 km/h 75% 0.00 mm 42.45 W/m2
17:49 29.0 °C 24.0 °C 1012.2 hPa NW 8 km/h 8 km/h 75% 0.00 mm 35.11 W/m2
17:54 29.0 °C 24.0 °C 1012.3 hPa NNW 4 km/h 4 km/h 75% 0.00 mm 28.14 W/m2
17:59 29.0 °C 25.0 °C 1012.3 hPa North 10 km/h 12 km/h 77% 0.00 mm 22.51 W/m2
18:04 29.0 °C 24.0 °C 1012.3 hPa North 8 km/h 8 km/h 77% 0.00 mm 16.02 W/m2
18:09 29.0 °C 24.0 °C 1012.2 hPa NNE 6 km/h 8 km/h 77% 0.00 mm 12.11 W/m2
18:14 29.0 °C 25.0 °C 1012.4 hPa North 8 km/h 8 km/h 78% 0.00 mm 7.34 W/m2
18:19 29.0 °C 24.0 °C 1012.2 hPa NNW 8 km/h 8 km/h 77% 0.00 mm 3.79 W/m2
18:24 29.0 °C 25.0 °C 1012.4 hPa North 5 km/h 8 km/h 78% 0.00 mm 1.22 W/m2
18:29 29.0 °C 25.0 °C 1012.5 hPa NNW 10 km/h 12 km/h 78% 0.00 mm 0.00 W/m2
18:34 29.0 °C 24.0 °C 1012.5 hPa NNW 8 km/h 8 km/h 78% 0.00 mm 0.00 W/m2
18:39 29.0 °C 25.0 °C 1012.5 hPa NNW 8 km/h 8 km/h 79% 0.00 mm 0.00 W/m2
18:44 29.0 °C 25.0 °C 1012.6 hPa NNW 9 km/h 12 km/h 80% 0.00 mm 0.00 W/m2
18:49 29.0 °C 25.0 °C 1012.8 hPa NW 8 km/h 12 km/h 80% 0.00 mm 0.00 W/m2
18:54 28.0 °C 25.0 °C 1012.8 hPa NW 7 km/h 8 km/h 81% 0.00 mm 0.00 W/m2
18:59 28.0 °C 25.0 °C 1012.8 hPa NW 7 km/h 8 km/h 81% 0.00 mm 0.00 W/m2
19:04 28.0 °C 25.0 °C 1012.9 hPa NW 8 km/h 8 km/h 82% 0.00 mm 0.00 W/m2
19:09 28.0 °C 25.0 °C 1013.0 hPa NW 7 km/h 8 km/h 82% 0.00 mm 0.00 W/m2
19:14 28.0 °C 25.0 °C 1012.8 hPa NW 6 km/h 8 km/h 82% 0.00 mm 0.00 W/m2
19:19 28.0 °C 25.0 °C 1013.1 hPa NW 8 km/h 8 km/h 82% 0.00 mm 0.00 W/m2
19:24 28.0 °C 25.0 °C 1013.1 hPa NNW 8 km/h 8 km/h 82% 0.00 mm 0.00 W/m2
19:29 28.0 °C 25.0 °C 1013.3 hPa NNW 5 km/h 8 km/h 82% 0.00 mm 0.00 W/m2
19:34 28.0 °C 25.0 °C 1013.2 hPa NW 5 km/h 8 km/h 82% 0.00 mm 0.00 W/m2
19:39 28.0 °C 25.0 °C 1013.2 hPa NW 5 km/h 8 km/h 82% 0.00 mm 0.00 W/m2
19:44 28.0 °C 25.0 °C 1013.3 hPa NW 4 km/h 4 km/h 82% 0.00 mm 0.00 W/m2
19:49 28.0 °C 25.0 °C 1013.3 hPa NW 4 km/h 4 km/h 82% 0.00 mm 0.00 W/m2
19:54 28.0 °C 25.0 °C 1013.3 hPa NW 4 km/h 4 km/h 82% 0.00 mm 0.00 W/m2
19:59 28.0 °C 25.0 °C 1013.4 hPa NW 4 km/h 4 km/h 82% 0.00 mm 0.00 W/m2
20:04 28.0 °C 25.0 °C 1013.4 hPa NW 2 km/h 4 km/h 82% 0.00 mm 0.00 W/m2
20:09 28.0 °C 25.0 °C 1013.5 hPa NNW 7 km/h 8 km/h 82% 0.00 mm 0.00 W/m2
20:14 28.0 °C 25.0 °C 1013.6 hPa North 7 km/h 8 km/h 82% 0.00 mm 0.00 W/m2
20:19 28.0 °C 25.0 °C 1013.6 hPa North 6 km/h 8 km/h 82% 0.00 mm 0.00 W/m2
20:24 28.0 °C 25.0 °C 1013.6 hPa North 8 km/h 8 km/h 83% 0.00 mm 0.00 W/m2
20:29 28.0 °C 25.0 °C 1013.6 hPa North 8 km/h 8 km/h 83% 0.00 mm 0.00 W/m2
20:34 28.0 °C 25.0 °C 1013.8 hPa North 6 km/h 8 km/h 83% 0.00 mm 0.00 W/m2
20:39 28.0 °C 25.0 °C 1013.8 hPa North 6 km/h 8 km/h 84% 0.00 mm 0.00 W/m2
20:44 28.0 °C 25.0 °C 1013.8 hPa NNE 5 km/h 8 km/h 84% 0.00 mm 0.00 W/m2
20:49 28.0 °C 25.0 °C 1013.8 hPa North 8 km/h 8 km/h 84% 0.00 mm 0.00 W/m2
20:54 28.0 °C 25.0 °C 1013.9 hPa North 4 km/h 4 km/h 84% 0.00 mm 0.00 W/m2
20:59 28.0 °C 25.0 °C 1013.8 hPa North 5 km/h 8 km/h 85% 0.00 mm 0.00 W/m2
21:04 28.0 °C 25.0 °C 1013.8 hPa NNW 8 km/h 8 km/h 85% 0.00 mm 0.00 W/m2
21:14 28.0 °C 25.0 °C 1014.1 hPa NNW 5 km/h 8 km/h 85% 0.00 mm 0.00 W/m2
21:19 28.0 °C 25.0 °C 1014.1 hPa NNW 4 km/h 4 km/h 86% 0.00 mm 0.00 W/m2
21:24 28.0 °C 25.0 °C 1014.1 hPa NNW 4 km/h 4 km/h 86% 0.00 mm 0.00 W/m2
21:29 28.0 °C 25.0 °C 1014.1 hPa NNW 4 km/h 4 km/h 86% 0.00 mm 0.00 W/m2
21:34 28.0 °C 25.0 °C 1014.2 hPa Calm   4 km/h 86% 0.00 mm 0.00 W/m2
21:39 28.0 °C 25.0 °C 1014.2 hPa NNW 1 km/h 4 km/h 86% 0.00 mm 0.00 W/m2
21:44 28.0 °C 25.0 °C 1014.1 hPa NNW 3 km/h 4 km/h 86% 0.00 mm 0.00 W/m2
21:49 28.0 °C 25.0 °C 1014.2 hPa Calm     86% 0.00 mm 0.00 W/m2
21:54 28.0 °C 25.0 °C 1014.1 hPa Calm     85% 0.00 mm 0.00 W/m2
21:59 28.0 °C 25.0 °C 1014.4 hPa Calm     86% 0.00 mm 0.00 W/m2
22:04 28.0 °C 25.0 °C 1014.4 hPa Calm     86% 0.00 mm 0.00 W/m2
22:09 28.0 °C 25.0 °C 1014.4 hPa Calm     85% 0.00 mm 0.00 W/m2
22:14 28.0 °C 25.0 °C 1014.5 hPa Calm     85% 0.00 mm 0.00 W/m2
22:19 28.0 °C 25.0 °C 1014.4 hPa Calm   4 km/h 85% 0.00 mm 0.00 W/m2
22:24 28.0 °C 25.0 °C 1014.2 hPa Calm     85% 0.00 mm 0.00 W/m2
22:29 28.0 °C 25.0 °C 1014.3 hPa Calm     85% 0.00 mm 0.00 W/m2
22:34 28.0 °C 25.0 °C 1014.3 hPa North 2 km/h 4 km/h 85% 0.00 mm 0.00 W/m2
22:39 28.0 °C 25.0 °C 1014.1 hPa NE 3 km/h 4 km/h 85% 0.00 mm 0.00 W/m2
22:44 28.0 °C 25.0 °C 1014.1 hPa ENE 5 km/h 8 km/h 85% 0.00 mm 0.00 W/m2
22:48 28.0 °C 25.0 °C 1014.1 hPa ESE 6 km/h 8 km/h 85% 0.00 mm 0.00 W/m2
22:59 28.0 °C 25.0 °C 1014.2 hPa SE 5 km/h 8 km/h 85% 0.00 mm 0.00 W/m2
23:04 28.0 °C 25.0 °C 1014.2 hPa SE 4 km/h 4 km/h 85% 0.00 mm 0.00 W/m2
23:09 28.0 °C 25.0 °C 1014.1 hPa SE 4 km/h 4 km/h 85% 0.00 mm 0.00 W/m2
23:14 28.0 °C 25.0 °C 1014.3 hPa SE 8 km/h 8 km/h 85% 0.00 mm 0.00 W/m2
23:19 28.0 °C 25.0 °C 1014.2 hPa SE 5 km/h 8 km/h 84% 0.00 mm 0.00 W/m2
23:24 28.0 °C 25.0 °C 1014.2 hPa SE 6 km/h 8 km/h 84% 0.00 mm 0.00 W/m2
23:29 28.0 °C 25.0 °C 1014.0 hPa SE 4 km/h 4 km/h 83% 0.00 mm 0.00 W/m2
23:34 28.0 °C 25.0 °C 1014.0 hPa SE 1 km/h 4 km/h 83% 0.00 mm 0.00 W/m2
23:39 28.0 °C 25.0 °C 1013.8 hPa SE 4 km/h 8 km/h 83% 0.00 mm 0.00 W/m2
23:44 28.0 °C 25.0 °C 1013.8 hPa SE 6 km/h 8 km/h 83% 0.00 mm 0.00 W/m2
23:49 28.0 °C 25.0 °C 1013.8 hPa SE 6 km/h 8 km/h 83% 0.00 mm 0.00 W/m2
23:54 28.0 °C 25.0 °C 1013.6 hPa SE 4 km/h 4 km/h 83% 0.00 mm 0.00 W/m2
23:59 28.0 °C 25.0 °C 1013.5 hPa SE 1 km/h 4 km/h 84% 0.00 mm 0.00 W/m2
PIMOHWEATHER Philippines
Compliments of Weather Underground - 2 mb